Vertical_Velocity
-0 -1 -0 -2 1 -0 -0 -5 -1 -2 0 0 0 2 0 -0 -3 1 -1 -3 -3 0 1 -2 -2 -4 -3 -3 -1 -1 2 2 0 1 1 0 1 0 1 -1 -1 -2 -3 -3 -2 -2 -1 0 0
0 1 1 1 2 2 -2 -0 1 1 1 -1 0 -1 1 0 1 3 1 -1 2 2 4 4 -0 -2 -0 -0 -2 -2 -3 -1 -1 -2 -1 2 1 1 1 1 0 -2 -2 -2 -2 -1 -2 0 -1
-1 -1 0 -2 -3 -1 -1 -1 -2 -1 0 3 2 -1 1 -1 -2 1 -0 -3 -5 -2 -1 3 0 2 2 0 2 -0 0 -1 -2 -2 -1 -1 0 3 0 -0 -1 -0 -1 -1 -1 2 -0 0 -1
-3 -1 0 -1 1 -0 -0 -1 0 1 -0 -2 -0 0 1 -4 -3 -3 -1 0 1 -1 -5 -2 -1 -0 -1 -1 -1 0 -0 2 2 2 0 -2 -0 2 2 0 -1 -1 -1 -3 -3 -4 -2 -0 -2
-2 -1 -0 -3 -1 -2 0 5 4 4 3 4 3 2 -1 -0 1 -0 -2 -4 -0 -1 1 4 1 2 -2 -1 -0 -0 -4 3 3 9 8 2 -0 1 2 0 -1 -0 -0 -0 -1 -1 -2 -0 -0
0 -0 -2 -1 -4 -3 -3 3 2 -1 1 -3 -1 2 0 -2 -3 1 1 2 0 -4 -4 1 2 -1 2 1 2 -1 -0 0 6 2 1 -4 -1 -2 3 3 1 0 -0 0 1 0 -2 -1 -2
1 -2 -3 -2 -4 -4 -4 -2 -2 -1 -3 0 -1 -0 -1 -2 0 -3 -4 -5 -3 -3 -2 -0 -0 -1 -3 -1 2 1 3 1 5 -1 19 -6 0 2 2 0 1 2 1 2 -2 -2 -1 0 -0
-1 4 1 -1 -2 -2 -6 -4 -4 -1 -3 -2 0 -0 -4 -4 -1 -1 -2 -1 -3 -5 -6 -3 -2 -2 1 -7 -1 -2 1 2 2 -2 -1 -0 -1 -2 3 1 1 -0 6 2 -1 1 -2 0 -0
-1 -1 5 3 -4 -4 -0 -2 3 -1 1 5 -3 -3 -0 -4 1 -2 -0 -2 -0 -0 -4 -1 -3 -2 -2 2 1 -1 -2 -4 -2 -0 -1 -3 1 4 10 3 -2 -2 -4 -1 2 -2 -1 -1 0
-1 -2 1 -4 -2 4 -2 -1 -6 -3 -3 3 0 -0 0 2 -2 -1 -2 -3 -2 -0 -5 -1 -1 -2 -3 -2 -1 2 -3 -1 -1 -2 -2 -2 -4 9 3 3 1 1 3 -2 2 -2 3 -0 2
1 7 -4 10 0 -1 3 -1 -6 -2 4 -1 -0 1 7 -2 -0 0 -3 -1 -3 -2 3 -3 -1 -1 -0 -2 1 2 -3 1 1 1 -1 -3 1 0 1 3 1 7 4 0 1 -1 -1 1 2
-6 1 2 5 -6 -1 5 4 2 -7 11 -3 0 3 -5 2 1 -1 -2 -2 -3 -3 -1 -2 -4 -2 -1 -3 -2 -1 1 1 -0 -1 -1 -2 -1 1 7 -1 5 7 7 3 0 2 5 3 1
-6 5 2 3 9 2 -6 2 -1 10 -3 -1 -1 3 2 2 3 -0 -2 -4 2 -1 -1 -4 -2 3 -4 -0 -2 1 4 2 3 3 5 -1 1 -4 2 6 5 9 7 8 9 8 -3 -1 1
-2 0 -3 -4 3 -7 -11 6 -18 30 -1 3 1 2 6 5 -0 -0 1 -2 -3 -4 2 1 -3 3 -1 -2 1 -1 -2 2 2 -1 -1 -1 1 0 0 4 2 8 9 8 2 -2 1 -1 1
0 -5 -1 0 1 -11 -6 1 -3 2 2 -2 3 4 4 4 5 1 -0 3 0 1 2 1 3 -7 3 -4 2 6 -0 1 -2 -2 0 -3 -0 -3 2 -1 -0 3 2 2 1 -2 -2 -1 1
-9 -11 -9 -5 10 -10 -5 21 -4 2 0 -1 3 1 4 5 5 2 1 3 -3 -0 -4 -0 3 6 -11 5 -4 2 4 0 -1 -3 -1 -1 4 -1 -1 -2 -1 1 0 1 0 2 1 2 2
-3 2 -8 10 5 -5 -11 19 -7 12 0 1 4 2 3 6 7 4 3 -2 -1 -3 -1 3 1 -2 -2 -4 2 -2 -0 2 -0 0 -0 2 0 -1 -3 0 2 -5 -2 -2 -0 3 2 5 1
-4 -14 4 -6 10 -11 -3 7 3 3 -5 6 4 3 3 -1 9 -6 4 4 -1 2 -2 -7 0 -0 -2 -2 1 -0 2 -0 -1 -3 0 3 -1 3 -0 -3 -2 1 -3 -2 -4 -1 3 2 2
-3 -6 -7 13 3 -21 2 -3 10 5 -5 6 5 7 5 -1 5 -3 3 -1 2 -3 10 -8 1 1 3 0 4 0 0 -0 0 0 2 -5 -2 3 -2 -1 -2 0 0 2 -0 -2 -4 4 13
1 -5 14 3 1 -21 -6 -3 -3 11 17 1 3 14 -1 -2 -0 1 1 4 -6 -1 5 1 0 3 1 6 4 6 -4 2 1 -2 -2 -0 -1 -1 2 -1 0 -1 -1 2 1 7 2 -3 -3
8 -10 9 -15 4 -1 -15 -45 0 10 18 0 15 14 1 1 0 1 0 -1 -2 2 -5 7 -4 1 -4 2 -1 5 -7 -3 0 2 -4 -5 -3 1 -2 1 0 1 0 3 5 -1 -1 -1 1
3 -7 -3 -3 -6 -21 12 -118 65 16 -0 19 2 19 3 7 5 8 4 1 0 -2 2 1 -0 3 -5 -2 -2 4 -1 -2 -5 -3 -1 -2 1 -3 0 -2 -2 -2 -1 3 2 3 0 -1 -0
-3 -2 -1 8 -1 -39 96 -65 -115 55 25 -10 5 2 3 4 5 3 -3 1 -2 7 2 2 3 3 -5 2 3 3 -1 5 6 -1 1 -1 -1 -2 0 -4 -3 -2 -1 -0 1 -1 -0 -2 0
-2 1 6 0 10 -50 55 -12 -70 70 14 7 2 8 7 6 5 1 -0 2 3 1 -1 -4 -3 2 4 -0 -1 2 -0 3 5 0 5 4 -2 1 -1 2 -1 -1 -1 0 1 -1 -1 -2 -2
5 -1 -8 -11 12 -35 16 -25 -27 39 8 -10 10 -3 6 -1 0 2 1 2 4 1 3 3 2 3 -2 2 -2 2 -4 -1 5 -0 0 4 5 -0 -4 2 6 -2 -3 -1 -1 -2 -3 -1 -2
-19 6 19 -8 7 -5 34 -65 -30 -4 12 -7 -7 6 -5 0 1 2 -0 2 3 6 8 -0 2 -3 4 -2 0 -2 -4 3 5 -1 1 1 -1 -1 -3 -2 1 10 7 -2 4 0 -0 1 -1
-1 -1 9 -8 3 -15 20 -18 -40 28 -4 14 -3 -13 2 3 -0 2 -1 -5 -4 3 5 4 4 3 1 5 4 -3 0 2 -0 6 1 1 -5 -2 -4 -2 6 -5 -3 16 2 5 1 -1 -0
9 3 6 12 -2 -9 -46 -22 -14 -10 -4 5 1 2 -5 5 1 -4 -3 -0 -2 4 6 1 5 2 -4 2 -1 7 5 7 4 2 1 1 -6 -6 -4 3 -1 6 2 7 -5 2 1 -1 -4
6 6 -8 0 16 11 -27 -74 71 -0 -3 -9 -4 -8 -8 -3 -6 -2 1 -6 2 1 1 3 3 3 3 4 2 6 0 5 -0 -0 7 3 -2 5 -5 -1 4 7 9 5 4 -0 -1 -1 -1
4 4 8 6 -4 8 19 -143 62 -11 -10 -3 -15 -8 -1 3 -5 -5 8 10 3 7 6 -1 9 6 18 18 9 10 11 5 1 3 14 -0 13 9 -2 26 28 -1 -4 1 -5 2 1 1 -2
Height
5848 5848 5849 5849 5852 5850 5848 5848 5846 5846 5848 5848 5846 5847 5847 5846 5846 5848 5845 5845 5845 5844 5844 5844 5844 5844 5844 5844 5844 5845 5846 5846 5847 5847 5847 5847 5846 5845 5845 5845 5844 5845 5844 5844 5844 5844 5843 5843 5843
5847 5847 5848 5847 5848 5846 5846 5844 5844 5844 5845 5845 5844 5843 5844 5843 5841 5842 5841 5840 5841 5841 5841 5840 5840 5840 5839 5840 5840 5839 5839 5839 5839 5839 5841 5842 5843 5843 5842 5841 5841 5840 5840 5841 5840 5840 5839 5839 5838
5847 5846 5847 5846 5844 5844 5842 5842 5841 5840 5842 5841 5840 5840 5839 5839 5837 5837 5837 5836 5836 5836 5836 5836 5836 5835 5834 5834 5834 5832 5833 5834 5834 5834 5835 5836 5837 5838 5839 5838 5838 5837 5837 5837 5836 5836 5835 5835 5834
5845 5846 5846 5845 5843 5842 5840 5839 5838 5838 5838 5838 5838 5837 5836 5835 5834 5834 5832 5831 5830 5829 5830 5829 5829 5829 5828 5828 5827 5826 5826 5827 5828 5827 5828 5830 5832 5832 5833 5833 5833 5832 5832 5831 5831 5831 5831 5830 5829
5844 5844 5843 5842 5841 5840 5839 5838 5839 5838 5837 5834 5834 5834 5833 5831 5830 5828 5828 5826 5824 5822 5823 5823 5822 5823 5822 5822 5822 5821 5821 5821 5820 5818 5818 5823 5825 5826 5827 5827 5826 5826 5826 5826 5828 5828 5826 5825 5824
5843 5844 5843 5841 5840 5839 5837 5837 5837 5836 5832 5831 5830 5829 5828 5826 5825 5824 5823 5821 5819 5818 5816 5816 5816 5816 5817 5817 5817 5815 5815 5814 5816 5815 5815 5815 5819 5819 5820 5821 5821 5821 5821 5822 5823 5822 5821 5820 5818
5840 5841 5841 5840 5839 5837 5836 5834 5833 5832 5830 5827 5826 5825 5824 5821 5820 5819 5819 5818 5816 5813 5813 5811 5810 5810 5810 5810 5811 5812 5812 5812 5811 5810 5811 5810 5812 5813 5814 5814 5814 5815 5817 5818 5817 5817 5815 5814 5812
5837 5838 5838 5836 5835 5833 5830 5830 5828 5828 5827 5826 5824 5822 5819 5818 5817 5815 5813 5812 5811 5810 5809 5807 5806 5804 5804 5803 5804 5805 5806 5806 5806 5804 5803 5805 5806 5806 5808 5809 5809 5810 5812 5810 5812 5810 5808 5808 5807
5834 5835 5833 5831 5831 5830 5827 5825 5823 5823 5820 5821 5820 5817 5816 5815 5811 5811 5809 5808 5807 5806 5804 5803 5801 5800 5798 5797 5796 5796 5797 5798 5799 5799 5800 5800 5801 5800 5802 5803 5802 5805 5805 5805 5805 5803 5802 5803 5803
5828 5830 5829 5826 5825 5824 5823 5822 5817 5817 5815 5815 5812 5810 5808 5807 5807 5806 5804 5802 5801 5800 5798 5797 5796 5796 5794 5794 5792 5791 5792 5794 5794 5794 5794 5795 5798 5795 5797 5798 5798 5798 5798 5799 5798 5797 5796 5796 5796
5821 5823 5821 5821 5818 5816 5816 5814 5812 5810 5809 5807 5804 5803 5802 5799 5798 5797 5797 5795 5794 5793 5793 5791 5789 5789 5789 5787 5787 5788 5785 5785 5786 5788 5788 5789 5789 5791 5791 5790 5790 5792 5793 5792 5790 5791 5792 5792 5790
5815 5815 5812 5812 5811 5809 5807 5805 5805 5800 5802 5800 5795 5793 5791 5790 5789 5788 5787 5787 5786 5786 5785 5785 5784 5781 5782 5782 5780 5780 5781 5781 5780 5780 5781 5782 5782 5782 5782 5783 5783 5784 5785 5783 5783 5784 5783 5784 5785
5809 5810 5808 5805 5805 5802 5800 5799 5797 5794 5794 5789 5787 5785 5782 5780 5779 5778 5778 5777 5776 5777 5776 5775 5776 5777 5774 5773 5775 5774 5773 5773 5774 5775 5775 5775 5775 5776 5775 5774 5775 5775 5775 5776 5776 5776 5776 5777 5778
5800 5800 5799 5798 5796 5793 5792 5789 5785 5787 5781 5779 5778 5776 5773 5772 5769 5768 5768 5767 5767 5766 5767 5766 5767 5766 5766 5764 5765 5766 5766 5765 5766 5767 5768 5769 5768 5768 5767 5766 5766 5767 5767 5766 5766 5768 5770 5770 5771
5795 5792 5791 5790 5787 5783 5780 5777 5776 5771 5770 5769 5767 5764 5762 5761 5760 5759 5758 5756 5756 5756 5756 5756 5757 5757 5757 5758 5755 5757 5757 5757 5758 5758 5758 5759 5760 5760 5761 5760 5759 5759 5759 5758 5758 5758 5760 5762 5763
5786 5783 5781 5779 5775 5773 5770 5769 5764 5761 5759 5756 5754 5754 5752 5751 5750 5749 5748 5746 5745 5746 5745 5745 5745 5747 5748 5747 5747 5747 5748 5748 5748 5748 5749 5749 5750 5751 5751 5751 5751 5749 5749 5749 5750 5751 5752 5754 5754
5772 5770 5769 5766 5763 5761 5758 5758 5752 5751 5748 5745 5744 5742 5741 5740 5739 5737 5736 5736 5736 5735 5735 5735 5735 5736 5737 5736 5737 5738 5739 5739 5739 5738 5740 5740 5741 5741 5741 5742 5742 5740 5740 5739 5740 5742 5744 5745 5745
5760 5756 5755 5753 5753 5747 5746 5746 5742 5739 5735 5733 5732 5731 5728 5727 5726 5723 5724 5724 5724 5724 5725 5725 5726 5727 5728 5728 5727 5728 5728 5729 5728 5728 5729 5730 5730 5731 5731 5731 5731 5731 5732 5732 5731 5732 5734 5734 5735
5747 5743 5741 5741 5737 5733 5733 5733 5728 5725 5722 5720 5721 5720 5718 5716 5715 5713 5713 5712 5713 5714 5715 5716 5717 5717 5718 5717 5718 5717 5717 5716 5716 5717 5718 5720 5720 5720 5720 5720 5721 5721 5723 5724 5723 5722 5724 5725 5726
5735 5731 5727 5727 5721 5716 5717 5722 5714 5714 5711 5712 5710 5709 5707 5705 5703 5702 5702 5702 5704 5702 5704 5705 5706 5707 5707 5707 5706 5705 5705 5705 5705 5708 5709 5709 5708 5708 5709 5709 5710 5711 5712 5713 5713 5714 5713 5714 5715
5722 5716 5714 5709 5704 5701 5698 5704 5701 5701 5699 5701 5700 5699 5696 5696 5694 5692 5692 5693 5692 5693 5693 5693 5693 5693 5694 5695 5693 5692 5692 5694 5695 5697 5698 5697 5697 5698 5699 5700 5701 5701 5703 5704 5704 5706 5706 5705 5706
5708 5702 5699 5694 5690 5690 5684 5682 5696 5692 5689 5686 5686 5686 5684 5683 5682 5681 5681 5680 5679 5678 5679 5680 5680 5680 5680 5681 5680 5680 5680 5680 5682 5685 5686 5687 5688 5688 5690 5690 5691 5691 5692 5694 5693 5694 5695 5696 5698
5694 5687 5685 5680 5675 5677 5679 5673 5684 5684 5678 5672 5673 5672 5671 5670 5668 5667 5667 5666 5665 5664 5665 5666 5666 5667 5667 5668 5669 5669 5668 5667 5669 5671 5673 5675 5677 5677 5678 5679 5681 5682 5683 5682 5683 5684 5684 5686 5687
5678 5676 5671 5669 5664 5661 5672 5663 5665 5671 5666 5660 5657 5659 5657 5655 5655 5652 5651 5651 5650 5648 5647 5648 5649 5652 5653 5655 5654 5655 5654 5654 5655 5657 5658 5661 5663 5665 5666 5668 5670 5671 5672 5672 5673 5675 5675 5676 5677
5667 5661 5657 5654 5649 5648 5653 5645 5650 5659 5653 5646 5647 5643 5639 5637 5636 5635 5634 5633 5632 5631 5629 5629 5628 5630 5632 5636 5638 5640 5640 5641 5641 5641 5643 5646 5648 5652 5655 5656 5658 5659 5661 5662 5663 5665 5666 5667 5668
5650 5650 5645 5635 5637 5637 5636 5629 5642 5643 5638 5633 5629 5628 5625 5621 5619 5617 5615 5613 5611 5610 5607 5607 5607 5610 5612 5612 5614 5618 5623 5625 5625 5627 5629 5632 5635 5639 5641 5644 5646 5648 5647 5649 5652 5653 5656 5657 5658
5638 5636 5631 5621 5617 5613 5619 5617 5623 5621 5617 5615 5609 5606 5606 5602 5599 5596 5591 5588 5585 5583 5583 5582 5582 5584 5590 5592 5595 5598 5602 5606 5610 5611 5614 5617 5622 5625 5627 5631 5633 5634 5638 5636 5642 5644 5646 5647 5649
5627 5623 5618 5607 5597 5590 5599 5600 5600 5596 5594 5590 5587 5580 5576 5572 5567 5562 5560 5556 5554 5554 5553 5554 5555 5559 5565 5569 5574 5579 5583 5587 5591 5594 5598 5602 5607 5610 5612 5616 5618 5618 5620 5627 5631 5634 5637 5639 5640
5612 5606 5599 5592 5585 5570 5565 5575 5587 5575 5569 5562 5559 5555 5546 5541 5537 5532 5528 5524 5524 5523 5522 5526 5530 5534 5539 5543 5551 5558 5563 5567 5573 5576 5578 5585 5590 5593 5597 5601 5605 5607 5609 5613 5619 5624 5626 5628 5629
5596 5589 5584 5574 5566 5562 5546 5541 5563 5552 5544 5539 5532 5526 5521 5516 5509 5502 5499 5497 5495 5500 5502 5504 5506 5511 5515 5519 5523 5530 5541 5548 5553 5557 5564 5567 5572 5578 5584 5586 5587 5591 5597 5602 5608 5613 5616 5618 5620